Regional Weather Roundup
Issued by NWS

Home | Current Version | Previous Version | Graphics & Text | Print | Product List | Glossary On
Versions: 1 2 3 4 5 6 7 8 9 10 11 12 13 14 15 16 17 18 19 20 21 22 23 24 25 26 27 28 29 30 31 32 33 34 35 36 37 38 39 40 41 42 43 44 45 46 47 48 49 50
000
ASUS45 KCYS 011410
RWRWY

WYOMING REGIONAL WEATHER ROUNDUP
NATIONAL WEATHER SERVICE CHEYENNE WY
800 AM MDT MON SEP 01 2014

NOTE:  "FAIR" INDICATES FEW OR NO CLOUDS BELOW 12,000 FEET
WITH NO SIGNIFICANT WEATHER AND/OR OBSTRUCTIONS TO VISIBILITY.

WYZ001-011500-
YELLOWSTONE NATIONAL PARK

CITY           SKY/WX    TMP DP  RH WIND       PRES   REMARKS
LK YELLOWSTONE NOT AVBL
W YELLOWSTONE  NOT AVBL

$$
WYZ002>013-054>058-071-098>099-011500-
NORTHERN WYOMING

CITY           SKY/WX    TMP DP  RH WIND       PRES   REMARKS
JACKSON        SUNNY     36  36 100 CALM      30.13R
CODY             N/A    N/A N/A N/A MISG        N/A
GREYBULL       PTSUNNY   53  50  89 SW5       30.00R
WORLAND        LGT RAIN  53  51  93 S5        29.99F
SHERIDAN       CLOUDY    56  45  66 W9        30.00R
BUFFALO        PTSUNNY   51  41  68 NW8       30.02R
GILLETTE       CLOUDY    54  46  74 SW6       29.98S
HULETT         FAIR      52  46  82 MISG      29.99
NEWCASTLE      FAIR      48  46  93 CALM      29.99

$$
WYZ014>020-022>026-101>103-011500-
CENTRAL WYOMING

CITY           SKY/WX    TMP DP  RH WIND       PRES   REMARKS
BIG PINEY      SUNNY     38  35  89 CALM      30.15R
PINEDALE       SUNNY     34  32  93 W6        30.16R WCI  29
DUBOIS         FAIR      39  32  75 CALM      30.08F
LANDER         MOSUNNY   48  39  71 CALM      30.03R
RIVERTON       SUNNY     51  37  58 NW3       30.04R
CASPER         MOSUNNY   53  46  77 SW7       30.02F
DOUGLAS        MOSUNNY   50  47  89 CALM      30.03S

$$
WYZ021-027>030-104>119-011500-
SOUTHERN WYOMING

CITY           SKY/WX    TMP DP  RH WIND       PRES   REMARKS
EVANSTON       MOSUNNY   45  32  60 SW6       30.16S
KEMMERER       SUNNY     41  34  75 CALM      30.16R
FORT BRIDGER   FAIR      50  35  56 W9        30.17S
ROCK SPRINGS   MOSUNNY   47  33  58 CALM      30.14R
DIXON          FAIR      44  39  82 CALM      30.18S
RAWLINS        MOSUNNY   50  36  58 SW14G23   30.10S
SARATOGA       FAIR      45  37  76 SE7       30.15R
LARAMIE        MOSUNNY   50  34  54 SW12      30.12S
CHEYENNE       MOSUNNY   53  46  77 SW9       30.09S
TORRINGTON     MOSUNNY   49  47  93 NW5       30.00S
PINE BLUFFS    FAIR      48  46  93 S5        30.07S

$$



USA.gov is the U.S. government's official web portal to all federal, state and local government web resources and services.